,,Stat6,,Stat2,,Stat8,,Stat9,,Stat10,,Wind1,,Wind1,
time,status,PA1M_AVG,status,PR1M_SUM,status,RH1M_AVG,status,SR1M_AVG,status,TA1M_AVG,status,W1dAve1m,status,W1sAve1m,
2009-07-19, 00:00:00,VALID,918.069,VALID,0,VALID,100,VALID,0,VALID,19.7357,VALID,135,VALID,0.663867,
2009-07-19, 00:01:00,VALID,918.057,VALID,0,VALID,100,VALID,0,VALID,19.7362,VALID,139,VALID,0.334847,
2009-07-19, 00:02:00,VALID,918.062,VALID,0,VALID,100,VALID,0,VALID,19.7485,VALID,135,VALID,0.930078,
2009-07-19, 00:03:00,VALID,918.074,VALID,0,VALID,100,VALID,0.0169808,VALID,19.7587,VALID,141,VALID,0.496466,
2009-07-19, 00:04:00,VALID,918.079,VALID,0,VALID,100,VALID,0.0169808,VALID,19.7712,VALID,127,VALID,0.437691,
2009-07-19, 00:05:00,VALID,918.09,VALID,0,VALID,100,VALID,0,VALID,19.7582,VALID,130,VALID,0.861506,
2009-07-19, 00:06:00,VALID,918.082,VALID,0,VALID,100,VALID,0,VALID,19.7547,VALID,127,VALID,0.85423,
2009-07-19, 00:07:00,VALID,918.09,VALID,0,VALID,100,VALID,-0.0339617,VALID,19.7422,VALID,146,VALID,0.583333,
2009-07-19, 00:08:00,VALID,918.089,VALID,0,VALID,100,VALID,-0.0169808,VALID,19.755,VALID,134,VALID,0.673735,
2009-07-19, 00:09:00,VALID,918.095,VALID,0,VALID,100,VALID,0,VALID,19.7717,VALID,131,VALID,0.83085,
2009-07-19, 00:10:00,VALID,918.076,VALID,0,VALID,100,VALID,0,VALID,19.7612,VALID,144,VALID,0.800327,
2009-07-19, 00:11:00,VALID,918.076,VALID,0,VALID,100,VALID,0,VALID,19.7877,VALID,143,VALID,0.90439,
2009-07-19, 00:12:00,VALID,918.068,VALID,0,VALID,100,VALID,0,VALID,19.8041,VALID,141,VALID,0.890625,
2009-07-19, 00:13:00,VALID,918.034,VALID,0,VALID,100,VALID,0,VALID,19.8166,VALID,124,VALID,0.950267,
2009-07-19, 00:14:00,VALID,918.027,VALID,0,VALID,100,VALID,0,VALID,19.8134,VALID,117,VALID,0.854288,
2009-07-19, 00:15:00,VALID,917.998,VALID,0,VALID,100,VALID,-0.0169808,VALID,19.8204,VALID,113,VALID,0.541667,
2009-07-19, 00:16:00,VALID,917.974,VALID,0,VALID,100,VALID,0.0169808,VALID,19.8004,VALID,118,VALID,0.473011,
2009-07-19, 00:17:00,VALID,917.945,VALID,0,VALID,100,VALID,0,VALID,19.8006,VALID,104,VALID,0.406994,
2009-07-19, 00:18:00,VALID,917.924,VALID,0,VALID,100,VALID,0,VALID,19.8041,VALID,104,VALID,0.0407366,
2009-07-19, 00:19:00,VALID,917.897,VALID,0,VALID,100,VALID,0,VALID,19.8136,VALID,123,VALID,0.872852,
2009-07-19, 00:20:00,VALID,917.897,VALID,0,VALID,100,VALID,-0.0169808,VALID,19.8241,VALID,125,VALID,0.461458,
2009-07-19, 00:21:00,VALID,917.902,VALID,0,VALID,100,VALID,-0.0169808,VALID,19.7939,VALID,125,VALID,0.184896,
2009-07-19, 00:22:00,VALID,917.898,VALID,0,VALID,100,VALID,0.0169808,VALID,19.8131,VALID,125,VALID,0,
2009-07-19, 00:23:00,VALID,917.906,VALID,0,VALID,100,VALID,0,VALID,19.8231,VALID,121,VALID,0,
2009-07-19, 00:24:00,VALID,917.898,VALID,0,VALID,100,VALID,0,VALID,19.8331,VALID,114,VALID,0,
2009-07-19, 00:25:00,VALID,917.885,VALID,0,VALID,100,VALID,0.0169808,VALID,19.8263,VALID,102,VALID,0.0988991,
2009-07-19, 00:26:00,VALID,917.863,VALID,0,VALID,100,VALID,0,VALID,19.8199,VALID,80,VALID,0.534299,
2009-07-19, 00:27:00,VALID,917.834,VALID,0,VALID,100,VALID,0,VALID,19.8164,VALID,70,VALID,0.473828,
2009-07-19, 00:28:00,VALID,917.792,VALID,0,VALID,100,VALID,0,VALID,19.8398,VALID,64,VALID,0.533854,
2009-07-19, 00:29:00,VALID,917.784,VALID,0,VALID,100,VALID,0,VALID,19.8496,VALID,55,VALID,0.455788,
2009-07-19, 00:30:00,VALID,917.745,VALID,0,VALID,100,VALID,-0.0169808,VALID,19.8361,VALID,55,VALID,0.441992,
2009-07-19, 00:31:00,VALID,917.721,VALID,0,VALID,100,VALID,0.0169808,VALID,19.8164,VALID,55,VALID,0.451367,
2009-07-19, 00:32:00,VALID,917.703,VALID,0,VALID,100,VALID,-0.0339617,VALID,19.8139,VALID,55,VALID,0.2587,
2009-07-19, 00:33:00,VALID,917.689,VALID,0,VALID,100,VALID,0,VALID,19.8171,VALID,55,VALID,0.196403,
2009-07-19, 00:34:00,VALID,917.686,VALID,0,VALID,100,VALID,0,VALID,19.8271,VALID,55,VALID,0.00272529,
2009-07-19, 00:35:00,VALID,917.672,VALID,0,VALID,100,VALID,-0.0339617,VALID,19.8491,VALID,55,VALID,0,
2009-07-19, 00:36:00,VALID,917.65,VALID,0,VALID,100,VALID,0,VALID,19.8585,VALID,55,VALID,0,
2009-07-19, 00:37:00,VALID,917.62,VALID,0,VALID,100,VALID,-0.0169808,VALID,19.8715,VALID,55,VALID,0,
2009-07-19, 00:38:00,VALID,917.594,VALID,0,VALID,100,VALID,0.0169808,VALID,19.9145,VALID,55,VALID,0,
2009-07-19, 00:39:00,VALID,917.584,VALID,0,VALID,100,VALID,0,VALID,19.9107,VALID,55,VALID,0,
2009-07-19, 00:40:00,VALID,917.548,VALID,0,VALID,100,VALID,0.0169808,VALID,19.9037,VALID,55,VALID,0,
2009-07-19, 00:41:00,VALID,917.539,VALID,0,VALID,100,VALID,0.0169808,VALID,19.9082,VALID,58,VALID,0,
2009-07-19, 00:42:00,VALID,917.502,VALID,0,VALID,100,VALID,-0.0849042,VALID,19.8965,VALID,63,VALID,0,
2009-07-19, 00:43:00,VALID,917.488,VALID,0,VALID,100,VALID,-0.101885,VALID,19.8865,VALID,63,VALID,0,
2009-07-19, 00:44:00,VALID,917.477,VALID,0,VALID,100,VALID,-0.118866,VALID,19.8863,VALID,63,VALID,0,
2009-07-19, 00:45:00,VALID,917.465,VALID,0,VALID,100,VALID,-0.0849042,VALID,19.8968,VALID,79,VALID,0,
2009-07-19, 00:46:00,VALID,917.43,VALID,0,VALID,100,VALID,-0.118866,VALID,19.887,VALID,83,VALID,0,
2009-07-19, 00:47:00,VALID,917.407,VALID,0,VALID,100,VALID,-0.101885,VALID,19.8675,VALID,83,VALID,0,
2009-07-19, 00:48:00,VALID,917.376,VALID,0,VALID,100,VALID,-0.0849042,VALID,19.8606,VALID,83,VALID,0,
2009-07-19, 00:49:00,VALID,917.337,VALID,0,VALID,100,VALID,-0.118866,VALID,19.8289,VALID,83,VALID,0,
2009-07-19, 00:50:00,VALID,917.318,VALID,0,VALID,100,VALID,-0.101885,VALID,19.7989,VALID,87,VALID,0.296317,
2009-07-19, 00:51:00,VALID,917.289,VALID,0,VALID,100,VALID,-0.101885,VALID,19.8156,VALID,95,VALID,0.59048,
2009-07-19, 00:52:00,VALID,917.282,VALID,0,VALID,100,VALID,-0.101885,VALID,19.7991,VALID,99,VALID,0.501562,
2009-07-19, 00:53:00,VALID,917.289,VALID,0,VALID,100,VALID,-0.0849042,VALID,19.7927,VALID,102,VALID,0.552379,
2009-07-19, 00:54:00,VALID,917.283,VALID,0,VALID,100,VALID,-0.101885,VALID,19.7632,VALID,106,VALID,0.535792,
2009-07-19, 00:55:00,VALID,917.274,VALID,0,VALID,100,VALID,-0.101885,VALID,19.7432,VALID,110,VALID,0.57919,
2009-07-19, 00:56:00,VALID,917.284,VALID,0,VALID,100,VALID,-0.101885,VALID,19.7372,VALID,110,VALID,0.464208,
2009-07-19, 00:57:00,VALID,917.279,VALID,0,VALID,100,VALID,-0.0509425,VALID,19.7298,VALID,110,VALID,0.473958,
2009-07-19, 00:58:00,VALID,917.284,VALID,0,VALID,100,VALID,-0.0169808,VALID,19.7325,VALID,110,VALID,0.427641,
2009-07-19, 00:59:00,VALID,917.286,VALID,0,VALID,100,VALID,-0.0509425,VALID,19.7293,VALID,110,VALID,0.398438,
2009-07-19, 01:00:00,VALID,917.274,VALID,0,VALID,100,VALID,-0.0169808,VALID,19.6933,VALID,110,VALID,0.00220788,
2009-07-19, 01:01:00,VALID,917.259,VALID,0,VALID,100,VALID,-0.0169808,VALID,19.6544,VALID,110,VALID,0,
2009-07-19, 01:02:00,VALID,917.246,VALID,0,VALID,100,VALID,-0.0339617,VALID,19.6646,VALID,110,VALID,0,
2009-07-19, 01:03:00,VALID,917.229,VALID,0,VALID,100,VALID,0,VALID,19.6808,VALID,110,VALID,0,
2009-07-19, 01:04:00,VALID,917.203,VALID,0,VALID,100,VALID,-0.0339617,VALID,19.6843,VALID,110,VALID,0,
2009-07-19, 01:05:00,VALID,917.192,VALID,0,VALID,100,VALID,-0.0339617,VALID,19.6941,VALID,110,VALID,0,
2009-07-19, 01:06:00,VALID,917.187,VALID,0,VALID,100,VALID,0,VALID,19.6871,VALID,124,VALID,0.369792,
2009-07-19, 01:07:00,VALID,917.188,VALID,0,VALID,100,VALID,-0.0339617,VALID,19.7105,VALID,177,VALID,0.517113,
2009-07-19, 01:08:00,VALID,917.177,VALID,0,VALID,100,VALID,0,VALID,19.7168,VALID,177,VALID,0.0825639,
2009-07-19, 01:09:00,VALID,917.173,VALID,0,VALID,100,VALID,-0.0339617,VALID,19.7133,VALID,177,VALID,0,
2009-07-19, 01:10:00,VALID,917.166,VALID,0,VALID,100,VALID,-0.0169808,VALID,19.7133,VALID,177,VALID,0,
2009-07-19, 01:11:00,VALID,917.159,VALID,0,VALID,100,VALID,-0.0169808,VALID,19.6936,VALID,177,VALID,0,
2009-07-19, 01:12:00,VALID,917.146,VALID,0,VALID,100,VALID,-0.0169808,VALID,19.6743,VALID,177,VALID,0,
2009-07-19, 01:13:00,VALID,917.141,VALID,0,VALID,100,VALID,0,VALID,19.6873,VALID,177,VALID,0,
2009-07-19, 01:14:00,VALID,917.118,VALID,0,VALID,100,VALID,-0.0169808,VALID,19.7065,VALID,177,VALID,0,
2009-07-19, 01:15:00,VALID,917.118,VALID,0,VALID,100,VALID,-0.0509425,VALID,19.7268,VALID,177,VALID,0,
2009-07-19, 01:16:00,VALID,917.106,VALID,0,VALID,100,VALID,-0.0509425,VALID,19.7327,VALID,177,VALID,0,
2009-07-19, 01:17:00,VALID,917.118,VALID,0,VALID,100,VALID,0,VALID,19.7395,VALID,177,VALID,0,
2009-07-19, 01:18:00,VALID,917.111,VALID,0,VALID,100,VALID,-0.0339617,VALID,19.7365,VALID,177,VALID,0,
2009-07-19, 01:19:00,VALID,917.121,VALID,0,VALID,100,VALID,-0.0169808,VALID,19.7233,VALID,177,VALID,0,
2009-07-19, 01:20:00,VALID,917.13,VALID,0,VALID,100,VALID,-0.0169808,VALID,19.7103,VALID,177,VALID,0.0288318,
2009-07-19, 01:21:00,VALID,917.142,VALID,0,VALID,100,VALID,-0.0169808,VALID,19.7133,VALID,165,VALID,0.521662,
2009-07-19, 01:22:00,VALID,917.171,VALID,0,VALID,100,VALID,-0.0679233,VALID,19.7268,VALID,164,VALID,0.22061,
2009-07-19, 01:23:00,VALID,917.167,VALID,0,VALID,100,VALID,-0.0339617,VALID,19.7165,VALID,164,VALID,0,
2009-07-19, 01:24:00,VALID,917.164,VALID,0,VALID,100,VALID,-0.0169808,VALID,19.7357,VALID,164,VALID,0,
2009-07-19, 01:25:00,VALID,917.161,VALID,0,VALID,100,VALID,-0.0339617,VALID,19.7657,VALID,164,VALID,0,
2009-07-19, 01:26:00,VALID,917.148,VALID,0,VALID,100,VALID,-0.0339617,VALID,19.7914,VALID,164,VALID,0,
2009-07-19, 01:27:00,VALID,917.143,VALID,0,VALID,100,VALID,-0.0169808,VALID,19.7941,VALID,164,VALID,0,
2009-07-19, 01:28:00,VALID,917.137,VALID,0,VALID,100,VALID,0,VALID,19.8014,VALID,164,VALID,0,
2009-07-19, 01:29:00,VALID,917.15,VALID,0,VALID,100,VALID,-0.0849042,VALID,19.8046,VALID,164,VALID,0,
2009-07-19, 01:30:00,VALID,917.151,VALID,0,VALID,100,VALID,-0.0509425,VALID,19.8109,VALID,164,VALID,0,
2009-07-19, 01:31:00,VALID,917.152,VALID,0,VALID,100,VALID,0,VALID,19.7974,VALID,164,VALID,0,
2009-07-19, 01:32:00,VALID,917.134,VALID,0,VALID,100,VALID,-0.0679233,VALID,19.7879,VALID,164,VALID,0,
2009-07-19, 01:33:00,VALID,917.135,VALID,0,VALID,100,VALID,0,VALID,19.8011,VALID,164,VALID,0,
2009-07-19, 01:34:00,VALID,917.141,VALID,0,VALID,100,VALID,-0.0679233,VALID,19.8044,VALID,164,VALID,0,
2009-07-19, 01:35:00,VALID,917.157,VALID,0,VALID,100,VALID,-0.0509425,VALID,19.7946,VALID,164,VALID,0,
2009-07-19, 01:36:00,VALID,917.173,VALID,0,VALID,100,VALID,-0.0509425,VALID,19.7752,VALID,164,VALID,0,
2009-07-19, 01:37:00,VALID,917.18,VALID,0,VALID,100,VALID,-0.0169808,VALID,19.7555,VALID,164,VALID,0,
2009-07-19, 01:38:00,VALID,917.196,VALID,0,VALID,100,VALID,-0.0509425,VALID,19.7492,VALID,164,VALID,0,
2009-07-19, 01:39:00,VALID,917.209,VALID,0,VALID,100,VALID,-0.0339617,VALID,19.7235,VALID,164,VALID,0,
2009-07-19, 01:40:00,VALID,917.234,VALID,0,VALID,100,VALID,-0.0849042,VALID,19.7138,VALID,164,VALID,0,
2009-07-19, 01:41:00,VALID,917.237,VALID,0,VALID,100,VALID,-0.0339617,VALID,19.6973,VALID,164,VALID,0,
2009-07-19, 01:42:00,VALID,917.226,VALID,0,VALID,100,VALID,-0.0339617,VALID,19.6911,VALID,141,VALID,0,
2009-07-19, 01:43:00,VALID,917.209,VALID,0,VALID,100,VALID,-0.0679233,VALID,19.6586,VALID,107,VALID,0.754687,
2009-07-19, 01:44:00,VALID,917.183,VALID,0,VALID,100,VALID,-0.0169808,VALID,19.6162,VALID,98,VALID,0.997569,
2009-07-19, 01:45:00,VALID,917.156,VALID,0,VALID,100,VALID,-0.0169808,VALID,19.5802,VALID,73,VALID,1.00273,
2009-07-19, 01:46:00,VALID,917.138,VALID,0,VALID,100,VALID,-0.0169808,VALID,19.5675,VALID,54,VALID,1.05599,
2009-07-19, 01:47:00,VALID,917.107,VALID,0,VALID,100,VALID,-0.0679233,VALID,19.5508,VALID,57,VALID,1.10789,
2009-07-19, 01:48:00,VALID,917.09,VALID,0,VALID,100,VALID,-0.0169808,VALID,19.5548,VALID,50,VALID,1.08613,
2009-07-19, 01:49:00,VALID,917.076,VALID,0,VALID,100,VALID,-0.0169808,VALID,19.5313,VALID,32,VALID,0.819041,
2009-07-19, 01:50:00,VALID,917.063,VALID,0,VALID,100,VALID,-0.0509425,VALID,19.5351,VALID,22,VALID,0.71189,
2009-07-19, 01:51:00,VALID,917.049,VALID,0,VALID,100,VALID,-0.0509425,VALID,19.5513,VALID,20,VALID,0.81436,
2009-07-19, 01:52:00,VALID,917.055,VALID,0,VALID,100,VALID,-0.0509425,VALID,19.5545,VALID,27,VALID,0.588368,
2009-07-19, 01:53:00,VALID,917.05,VALID,0,VALID,100,VALID,0,VALID,19.5451,VALID,27,VALID,0.455664,
2009-07-19, 01:54:00,VALID,917.026,VALID,0,VALID,100,VALID,0,VALID,19.5288,VALID,27,VALID,0.365799,
2009-07-19, 01:55:00,VALID,917.026,VALID,0,VALID,100,VALID,-0.0169808,VALID,19.5124,VALID,27,VALID,0.472461,
2009-07-19, 01:56:00,VALID,917.015,VALID,0,VALID,100,VALID,-0.0169808,VALID,19.5154,VALID,27,VALID,0.535243,
2009-07-19, 01:57:00,VALID,917.027,VALID,0,VALID,100,VALID,0,VALID,19.4924,VALID,27,VALID,0.604725,
2009-07-19, 01:58:00,VALID,917.027,VALID,0,VALID,100,VALID,0,VALID,19.4797,VALID,27,VALID,0.73473,
2009-07-19, 01:59:00,VALID,917.025,VALID,0,VALID,100,VALID,-0.0169808,VALID,19.4767,VALID,27,VALID,0.611328,
2009-07-19, 02:00:00,VALID,917.038,VALID,0,VALID,100,VALID,-0.0169808,VALID,19.4634,VALID,27,VALID,0.617882,
2009-07-19, 02:01:00,VALID,917.039,VALID,0,VALID,100,VALID,-0.0169808,VALID,19.46,VALID,27,VALID,0.309451,
2009-07-19, 02:02:00,VALID,917.038,VALID,0,VALID,100,VALID,-0.0169808,VALID,19.5026,VALID,27,VALID,0.0323661,
2009-07-19, 02:03:00,VALID,917.027,VALID,0,VALID,100,VALID,-0.0509425,VALID,19.561,VALID,27,VALID,0,
2009-07-19, 02:04:00,VALID,917.016,VALID,0,VALID,100,VALID,-0.0509425,VALID,19.5807,VALID,27,VALID,0,
2009-07-19, 02:05:00,VALID,917.002,VALID,0,VALID,100,VALID,-0.0339617,VALID,19.551,VALID,27,VALID,0,
2009-07-19, 02:06:00,VALID,916.981,VALID,0,VALID,100,VALID,0,VALID,19.5184,VALID,27,VALID,0,
2009-07-19, 02:07:00,VALID,916.988,VALID,0,VALID,100,VALID,0,VALID,19.5116,VALID,27,VALID,0,
2009-07-19, 02:08:00,VALID,916.984,VALID,0,VALID,100,VALID,-0.0509425,VALID,19.4994,VALID,27,VALID,0,
2009-07-19, 02:09:00,VALID,916.983,VALID,0,VALID,100,VALID,-0.0339617,VALID,19.4634,VALID,27,VALID,0,
2009-07-19, 02:10:00,VALID,916.979,VALID,0,VALID,100,VALID,-0.0169808,VALID,19.457,VALID,27,VALID,0.184832,
2009-07-19, 02:11:00,VALID,916.983,VALID,0,VALID,100,VALID,0,VALID,19.4305,VALID,29,VALID,0.683117,
2009-07-19, 02:12:00,VALID,916.998,VALID,0,VALID,100,VALID,-0.0169808,VALID,19.3986,VALID,55,VALID,0.794829,
2009-07-19, 02:13:00,VALID,916.985,VALID,0,VALID,100,VALID,-0.0509425,VALID,19.3758,VALID,58,VALID,0.687872,
2009-07-19, 02:14:00,VALID,916.981,VALID,0,VALID,100,VALID,-0.0169808,VALID,19.3629,VALID,58,VALID,0.437309,
2009-07-19, 02:15:00,VALID,916.979,VALID,0,VALID,100,VALID,0,VALID,19.3427,VALID,58,VALID,0.356055,
2009-07-19, 02:16:00,VALID,916.966,VALID,0,VALID,100,VALID,-0.0339617,VALID,19.3397,VALID,58,VALID,0.0133929,
2009-07-19, 02:17:00,VALID,916.971,VALID,0,VALID,100,VALID,-0.0169808,VALID,19.3691,VALID,58,VALID,0,
2009-07-19, 02:18:00,VALID,916.956,VALID,0,VALID,100,VALID,-0.0169808,VALID,19.3793,VALID,58,VALID,0,
2009-07-19, 02:19:00,VALID,916.991,VALID,0,VALID,100,VALID,-0.0679233,VALID,19.3569,VALID,58,VALID,0,
2009-07-19, 02:20:00,VALID,916.993,VALID,0,VALID,100,VALID,0,VALID,19.3434,VALID,58,VALID,0,
2009-07-19, 02:21:00,VALID,916.998,VALID,0,VALID,100,VALID,-0.0169808,VALID,19.3204,VALID,58,VALID,0,
2009-07-19, 02:22:00,VALID,916.991,VALID,0,VALID,100,VALID,-0.0339617,VALID,19.3107,VALID,58,VALID,0,
2009-07-19, 02:23:00,VALID,916.962,VALID,0,VALID,100,VALID,-0.0169808,VALID,19.3045,VALID,58,VALID,0,
2009-07-19, 02:24:00,VALID,916.944,VALID,0,VALID,100,VALID,-0.0169808,VALID,19.298,VALID,58,VALID,0,
2009-07-19, 02:25:00,VALID,916.9,VALID,0,VALID,100,VALID,-0.0339617,VALID,19.285,VALID,58,VALID,0,
2009-07-19, 02:26:00,VALID,916.875,VALID,0,VALID,100,VALID,-0.0169808,VALID,19.2878,VALID,58,VALID,0,
2009-07-19, 02:27:00,VALID,916.852,VALID,0,VALID,100,VALID,0,VALID,19.2977,VALID,58,VALID,0,
2009-07-19, 02:28:00,VALID,916.839,VALID,0,VALID,100,VALID,-0.0169808,VALID,19.314,VALID,58,VALID,0,
2009-07-19, 02:29:00,VALID,916.827,VALID,0,VALID,100,VALID,-0.0169808,VALID,19.3239,VALID,58,VALID,0,
2009-07-19, 02:30:00,VALID,916.827,VALID,0,VALID,100,VALID,-0.0169808,VALID,19.3234,VALID,58,VALID,0,
2009-07-19, 02:31:00,VALID,916.842,VALID,0,VALID,100,VALID,0,VALID,19.3172,VALID,58,VALID,0,
2009-07-19, 02:32:00,VALID,916.862,VALID,0,VALID,100,VALID,-0.0169808,VALID,19.314,VALID,59,VALID,0,
2009-07-19, 02:33:00,VALID,916.847,VALID,0,VALID,100,VALID,-0.0169808,VALID,19.3045,VALID,58,VALID,0,
2009-07-19, 02:34:00,VALID,916.858,VALID,0,VALID,100,VALID,-0.0169808,VALID,19.2685,VALID,60,VALID,0.450648,
2009-07-19, 02:35:00,VALID,916.85,VALID,0,VALID,100,VALID,-0.0509425,VALID,19.2433,VALID,87,VALID,0.700036,
2009-07-19, 02:36:00,VALID,916.865,VALID,0,VALID,100,VALID,-0.0169808,VALID,19.1999,VALID,99,VALID,0.594336,
2009-07-19, 02:37:00,VALID,916.867,VALID,0,VALID,100,VALID,-0.0509425,VALID,19.1682,VALID,99,VALID,0.459872,
2009-07-19, 02:38:00,VALID,916.878,VALID,0,VALID,100,VALID,0,VALID,19.1253,VALID,99,VALID,0.0529514,
2009-07-19, 02:39:00,VALID,916.885,VALID,0,VALID,100,VALID,-0.0169808,VALID,19.0929,VALID,99,VALID,0,
2009-07-19, 02:40:00,VALID,916.882,VALID,0,VALID,100,VALID,0,VALID,19.0861,VALID,99,VALID,0,
2009-07-19, 02:41:00,VALID,916.878,VALID,0,VALID,100,VALID,0,VALID,19.0829,VALID,99,VALID,0,
2009-07-19, 02:42:00,VALID,916.867,VALID,0,VALID,100,VALID,-0.0339617,VALID,19.0966,VALID,99,VALID,0,
2009-07-19, 02:43:00,VALID,916.845,VALID,0,VALID,100,VALID,-0.0169808,VALID,19.0929,VALID,99,VALID,0,
2009-07-19, 02:44:00,VALID,916.838,VALID,0,VALID,100,VALID,0,VALID,19.1061,VALID,99,VALID,0,
2009-07-19, 02:45:00,VALID,916.807,VALID,0,VALID,100,VALID,0,VALID,19.1163,VALID,99,VALID,0,
2009-07-19, 02:46:00,VALID,916.796,VALID,0,VALID,100,VALID,0,VALID,19.0864,VALID,99,VALID,0,
2009-07-19, 02:47:00,VALID,916.769,VALID,0,VALID,100,VALID,0,VALID,19.0572,VALID,99,VALID,0,
2009-07-19, 02:48:00,VALID,916.754,VALID,0,VALID,100,VALID,-0.0169808,VALID,19.005,VALID,99,VALID,0,
2009-07-19, 02:49:00,VALID,916.73,VALID,0,VALID,100,VALID,0,VALID,18.9339,VALID,99,VALID,0,
2009-07-19, 02:50:00,VALID,916.735,VALID,0,VALID,100,VALID,0.0169808,VALID,18.8625,VALID,107,VALID,0.547783,
2009-07-19, 02:51:00,VALID,916.734,VALID,0,VALID,100,VALID,-0.0169808,VALID,18.8139,VALID,114,VALID,0.773251,
2009-07-19, 02:52:00,VALID,916.743,VALID,0,VALID,100,VALID,0,VALID,18.8039,VALID,119,VALID,0.818924,
2009-07-19, 02:53:00,VALID,916.767,VALID,0,VALID,100,VALID,0,VALID,18.7877,VALID,126,VALID,0.793679,
2009-07-19, 02:54:00,VALID,916.769,VALID,0,VALID,100,VALID,0,VALID,18.7682,VALID,134,VALID,0.41915,
2009-07-19, 02:55:00,VALID,916.762,VALID,0,VALID,100,VALID,0,VALID,18.765,VALID,135,VALID,0.475654,
2009-07-19, 02:56:00,VALID,916.761,VALID,0,VALID,100,VALID,-0.0169808,VALID,18.7819,VALID,143,VALID,0.511719,
2009-07-19, 02:57:00,VALID,916.725,VALID,0,VALID,100,VALID,-0.101885,VALID,18.7796,VALID,143,VALID,0.449609,
2009-07-19, 02:58:00,VALID,916.707,VALID,0,VALID,100,VALID,-0.118866,VALID,18.8098,VALID,143,VALID,0.34013,
2009-07-19, 02:59:00,VALID,916.681,VALID,0,VALID,100,VALID,-0.101885,VALID,18.7961,VALID,143,VALID,0.00247713,
2009-07-19, 03:00:00,VALID,916.655,VALID,0,VALID,100,VALID,-0.118866,VALID,18.8031,VALID,143,VALID,0,
2009-07-19, 03:01:00,VALID,916.653,VALID,0,VALID,100,VALID,-0.101885,VALID,18.7861,VALID,143,VALID,0,
2009-07-19, 03:02:00,VALID,916.665,VALID,0,VALID,100,VALID,-0.101885,VALID,18.7512,VALID,143,VALID,0,
2009-07-19, 03:03:00,VALID,916.678,VALID,0,VALID,100,VALID,-0.101885,VALID,18.696,VALID,143,VALID,0,
2009-07-19, 03:04:00,VALID,916.692,VALID,0,VALID,100,VALID,-0.169808,VALID,18.6246,VALID,143,VALID,0,
2009-07-19, 03:05:00,VALID,916.705,VALID,0,VALID,100,VALID,-0.0849042,VALID,18.5855,VALID,143,VALID,0,
2009-07-19, 03:06:00,VALID,916.728,VALID,0,VALID,100,VALID,-0.101885,VALID,18.5795,VALID,143,VALID,0,
2009-07-19, 03:07:00,VALID,916.741,VALID,0,VALID,100,VALID,-0.101885,VALID,18.6019,VALID,143,VALID,0,
2009-07-19, 03:08:00,VALID,916.756,VALID,0,VALID,100,VALID,-0.118866,VALID,18.6441,VALID,136,VALID,0,
2009-07-19, 03:09:00,VALID,916.763,VALID,0,VALID,100,VALID,-0.0849042,VALID,18.6735,VALID,138,VALID,0.13125,
2009-07-19, 03:10:00,VALID,916.762,VALID,0,VALID,100,VALID,-0.0849042,VALID,18.6765,VALID,147,VALID,0.650641,
2009-07-19, 03:11:00,VALID,916.771,VALID,0,VALID,100,VALID,-0.101885,VALID,18.6728,VALID,147,VALID,0.416493,
2009-07-19, 03:12:00,VALID,916.772,VALID,0,VALID,100,VALID,-0.0509425,VALID,18.6786,VALID,147,VALID,0.130682,
2009-07-19, 03:13:00,VALID,916.756,VALID,0,VALID,100,VALID,-0.0169808,VALID,18.6686,VALID,147,VALID,0,
2009-07-19, 03:14:00,VALID,916.762,VALID,0,VALID,100,VALID,0,VALID,18.626,VALID,141,VALID,0,
2009-07-19, 03:15:00,VALID,916.765,VALID,0,VALID,100,VALID,-0.0339617,VALID,18.5938,VALID,124,VALID,0.62827,
2009-07-19, 03:16:00,VALID,916.752,VALID,0,VALID,100,VALID,-0.0169808,VALID,18.5773,VALID,120,VALID,0.824963,
2009-07-19, 03:17:00,VALID,916.749,VALID,0,VALID,100,VALID,0.0169808,VALID,18.5938,VALID,125,VALID,1.00145,
2009-07-19, 03:18:00,VALID,916.749,VALID,0,VALID,100,VALID,-0.0169808,VALID,18.5901,VALID,126,VALID,1.21484,
2009-07-19, 03:19:00,VALID,916.754,VALID,0,VALID,100,VALID,-0.0169808,VALID,18.6065,VALID,131,VALID,0.803199,
2009-07-19, 03:20:00,VALID,916.763,VALID,0,VALID,100,VALID,0,VALID,18.5843,VALID,119,VALID,0.858613,
2009-07-19, 03:21:00,VALID,916.769,VALID,0,VALID,100,VALID,0,VALID,18.5873,VALID,112,VALID,0.896835,
2009-07-19, 03:22:00,VALID,916.759,VALID,0,VALID,100,VALID,0,VALID,18.6028,VALID,114,VALID,1.05913,
2009-07-19, 03:23:00,VALID,916.768,VALID,0,VALID,100,VALID,-0.0339617,VALID,18.6035,VALID,122,VALID,1.01086,
2009-07-19, 03:24:00,VALID,916.746,VALID,0,VALID,100,VALID,0.0169808,VALID,18.5898,VALID,130,VALID,1.04892,
2009-07-19, 03:25:00,VALID,916.732,VALID,0,VALID,100,VALID,-0.0169808,VALID,18.5736,VALID,132,VALID,0.839026,
2009-07-19, 03:26:00,VALID,916.71,VALID,0,VALID,100,VALID,0,VALID,18.5576,VALID,137,VALID,0.733842,
2009-07-19, 03:27:00,VALID,916.702,VALID,0,VALID,100,VALID,-0.0679233,VALID,18.5586,VALID,147,VALID,0.693892,
2009-07-19, 03:28:00,VALID,916.699,VALID,0,VALID,100,VALID,-0.0849042,VALID,18.5593,VALID,147,VALID,0.494284,
2009-07-19, 03:29:00,VALID,916.7,VALID,0,VALID,100,VALID,-0.118866,VALID,18.5723,VALID,145,VALID,0.0607851,
2009-07-19, 03:30:00,VALID,916.692,VALID,0,VALID,100,VALID,-0.101885,VALID,18.582,VALID,140,VALID,0.431463,
2009-07-19, 03:31:00,VALID,916.681,VALID,0,VALID,100,VALID,-0.135847,VALID,18.5982,VALID,140,VALID,0.414063,
2009-07-19, 03:32:00,VALID,916.69,VALID,0,VALID,100,VALID,-0.101885,VALID,18.5882,VALID,140,VALID,0.487165,
2009-07-19, 03:33:00,VALID,916.686,VALID,0,VALID,100,VALID,-0.101885,VALID,18.5556,VALID,140,VALID,0.180414,
2009-07-19, 03:34:00,VALID,916.681,VALID,0,VALID,100,VALID,-0.101885,VALID,18.5331,VALID,140,VALID,0.0146723,
2009-07-19, 03:35:00,VALID,916.666,VALID,0,VALID,100,VALID,-0.101885,VALID,18.5238,VALID,140,VALID,0.0230655,
2009-07-19, 03:36:00,VALID,916.655,VALID,0,VALID,100,VALID,-0.101885,VALID,18.4977,VALID,140,VALID,0.437309,
2009-07-19, 03:37:00,VALID,916.638,VALID,0,VALID,100,VALID,-0.118866,VALID,18.4129,VALID,140,VALID,0.340216,
2009-07-19, 03:38:00,VALID,916.648,VALID,0,VALID,100,VALID,-0.118866,VALID,18.3644,VALID,140,VALID,0.427641,
2009-07-19, 03:39:00,VALID,916.638,VALID,0,VALID,100,VALID,-0.118866,VALID,18.329,VALID,140,VALID,0.546494,
2009-07-19, 03:40:00,VALID,916.652,VALID,0,VALID,100,VALID,-0.118866,VALID,18.3489,VALID,140,VALID,0.748224,
2009-07-19, 03:41:00,VALID,916.643,VALID,0,VALID,100,VALID,-0.101885,VALID,18.3913,VALID,140,VALID,0.68109,
2009-07-19, 03:42:00,VALID,916.648,VALID,0,VALID,100,VALID,-0.0339617,VALID,18.3959,VALID,140,VALID,0.56468,
2009-07-19, 03:43:00,VALID,916.643,VALID,0,VALID,100,VALID,-0.0339617,VALID,18.3992,VALID,140,VALID,0.476732,
2009-07-19, 03:44:00,VALID,916.641,VALID,0,VALID,100,VALID,-0.0169808,VALID,18.3985,VALID,140,VALID,0.593378,
2009-07-19, 03:45:00,VALID,916.624,VALID,0,VALID,100,VALID,-0.0339617,VALID,18.4247,VALID,140,VALID,0.7371,
2009-07-19, 03:46:00,VALID,916.605,VALID,0,VALID,100,VALID,-0.0169808,VALID,18.4444,VALID,140,VALID,0.43423,